カタログに戻る

OPS 4682 DEB

運用中PO
NORAD 51488·DEBRIS·🇺🇸 United States

打ち上げ Apr 3, 1965 から Vandenberg Space Force Base

Loading…

次のパス (今後24時間)

TLE

最新Source: Space-Track

元期: Sep 13, 2026, 23:56 UTC

1 51488U 65027FY  26256.99771146 -.00000400  00000-0 -13248-2 0  9997
2 51488  90.2451 353.2070 0019494  24.7090 335.4962 13.01472842554905

AllMySatでOPS 4682 DEBをリアルタイム追跡

Download on the App Store